sat.trackr.live / text

‹ back to catalog

STARLINK-2640

NORAD 48438 · 2021-040L

PAYLOAD ACTIVE UNKNOWN

§ Identity

Operator
Country
US
Launch date
2021-05-09
Launch site
AFETR
Launch vehicle
Mass (kg)
RCS (m²)

Purposes: comms

External: N2YO · Heavens-Above · Gunter

§ Orbital elements

Epoch: 2026-05-24T12:37:01.588512Z

Period
94.01 min
Inclination
53.1576°
Eccentricity
0.0001118
Mean motion
15.31709090 rev/d
Perigee alt
469.9 km
Apogee alt
471.5 km
Semi-major
6,848.8 km
B*
2.0400e-4
RAAN
185.4982°
Arg perigee
85.2810°
Mean anomaly
274.8319°
Rev number
27,829

§ Raw data

STARLINK-26401 48438U 21040L   26144.52571283  .00005972  00000+0  20400-3 0  99952 48438  53.1576 185.4982 0001118  85.2810 274.8319 15.31709090278295

JSON: /api/v1/satellites/48438 · /tle

For live sub-satellite position, see the globe view (requires WebGL).

§ Visibility from observer

Set your observer location to see the next 7 days of passes ≥ 10°. The values pass through the URL so the page stays shareable.

No JS? Fill the form by hand. The geolocation button needs JavaScript.